[[[{"header":{"parameterUnit":"kt","parameterCategory":2,"dx":1,"dy":1,"la1":30.253999710083008,"la2":30.299108505249023,"lo1":-89.0895004272461,"lo2":-89.04439544677734,"nx":28,"ny":28,"refTime":"2022-09-27T15:00:00:Z","depth":0,"parameterNumber":1,"parameterNumberName":"U-component_of_WINDS"},"data":[-5.951,-5.9707,-5.9681,-5.9892,-5.9904,-6.0044,-6.0085,-6.0135,-6.0167,-6.0329,-6.0416,-6.0408,-6.0429,-6.0526,-6.0618,-6.0612,-6.0656,-6.0743,-6.0722,-6.0353,-6.03,-6.025,-6.0204,-6.0752,-6.0752,-6.1111,-6.1115,-6.1117,-5.9238,-5.9253,-5.9357,-5.9441,-5.9529,-5.9427,-5.9484,-5.9566,-5.9693,-5.9734,-5.9819,-5.9958,-6.0064,-6.0055,-6.0152,-6.0242,-6.0201,-6.0271,-6.0267,-6.0273,-5.9875,-5.9826,-6.0302,-6.0302,-6.0302,-6.0302,-6.0301,-6.0301,-5.8737,-5.8856,-5.8892,-5.9004,-5.9038,-5.9094,-5.9202,-5.919,-5.9291,-5.9391,-5.9338,-5.9481,-5.9517,-5.9621,-5.9648,-5.9758,-5.9677,-5.9745,-5.9763,-5.9783,-5.981,-5.9302,-5.9772,-5.977,-5.9769,-5.9768,-5.9767,0,-5.8364,-5.8334,-5.8433,-5.8524,-5.8604,-5.8672,-5.8729,-5.8794,-5.8721,-5.8807,-5.8929,-5.8995,-5.9124,-5.9236,-5.932,-5.9335,-5.9243,-5.9228,-5.9276,-5.9309,-5.9326,-5.9324,-5.8682,-5.9217,-5.9212,-5.9209,-5.9206,-5.9204,-5.7861,-5.8002,-5.8026,-5.8099,-5.8124,-5.8242,-5.8307,-5.8231,-5.8304,-5.8362,-5.847,-5.8579,-5.8665,-5.8864,-5.8849,-5.8945,-5.8902,-5.911,-5.8917,-5.8939,-5.8912,-5.8907,-5.8922,-5.9153,-5.9159,-5.9164,-5.9169,0,-5.7581,-5.7538,-5.7748,-5.7758,-5.7764,-5.7916,-5.7924,-5.8038,-5.8014,-5.8168,-5.8199,-5.8164,-5.8284,-5.8235,-5.8363,-5.8334,-5.8582,-5.8534,-5.8569,-5.8559,-5.8744,-5.873,-5.9344,-5.9422,-5.8847,-5.8852,-5.8857,0,-5.7139,-5.7326,-5.7252,-5.7376,-5.758,-5.7501,-5.7705,-5.7706,-5.7736,-5.7857,-5.7742,-5.7857,-5.7776,-5.7884,-5.7842,-5.8034,-5.8056,-5.8048,-5.8036,-5.8063,-5.8065,-5.8105,-5.8082,-5.7996,-5.7993,-5.799,-5.7988,0,-5.6711,-5.6889,-5.7089,-5.7123,-5.7154,-5.725,-5.7267,-5.73,-5.7365,-5.7439,-5.7481,-5.7573,-5.7625,-5.7697,-5.7644,-5.7515,-5.7876,-5.7688,-5.7868,-5.787,-5.7957,-5.7954,-5.8503,-5.7984,-5.7983,-5.7982,-5.7981,0,-5.635,-5.6429,-5.6724,-5.6747,-5.6797,-5.6928,-5.7016,-5.7116,-5.716,-5.7142,-5.72,-5.712,-5.7282,-5.7099,-5.7321,-5.7169,-5.7226,-5.7231,-5.7243,-5.7261,-5.706,-5.7384,-5.7906,-5.7962,-5.7268,-5.7262,-5.7257,0,-5.5874,-5.6161,-5.6096,-5.6378,-5.6505,-5.6369,-5.6512,-5.6555,-5.6543,-5.6647,-5.6632,-5.6753,-5.6606,-5.6637,-5.6752,-5.6744,-5.6941,-5.6715,-5.687,-5.6877,-5.6869,-5.7347,-5.7442,-5.7796,-5.718,-5.7188,-5.7194,0,-5.5501,-5.5539,-5.5594,-5.5631,-5.5676,-5.5781,-5.5945,-5.6047,-5.612,-5.618,-5.6318,-5.6482,-5.6379,-5.6433,-5.6378,-5.6501,-5.6805,-5.6375,-5.6375,-5.6458,-5.7136,-5.7224,-5.7284,-5.674,-5.675,-5.6757,-5.7133,0,-5.4974,-5.5112,-5.5257,-5.5342,-5.5415,-5.5588,-5.5539,-5.5621,-5.5561,-5.5546,-5.5745,-5.5769,-5.5874,-5.5927,-5.587,-5.6166,-5.6111,-5.6,-5.5825,-5.6137,-5.626,-5.631,-5.5645,-5.5639,-5.5635,-5.5631,0,0,-5.4533,-5.473,-5.4655,-5.4813,-5.4871,-5.473,-5.492,-5.4959,-5.5043,-5.5086,-5.4986,-5.5225,-5.5251,-5.5498,-5.5591,-5.5632,-5.5682,-5.5576,-5.5987,-5.6027,-5.6064,-5.6196,-5.6249,-5.5623,-5.5621,-5.5619,-5.5618,0,-5.4332,-5.4359,-5.4548,-5.4585,-5.4638,-5.4613,-5.4658,-5.4686,-5.4686,-5.488,-5.4763,-5.4876,-5.507,-5.5113,-5.5161,-5.5542,-5.5451,-5.5577,-5.5801,-5.5942,-5.5988,-5.6029,-5.6168,-5.6219,-5.5607,-5.5607,-5.5608,0,-5.3961,-5.3981,-5.4067,-5.419,-5.4224,-5.4358,-5.4159,-5.4308,-5.4406,-5.4247,-5.4443,-5.4451,-5.4503,-5.4743,-5.4848,-5.4761,-5.5243,-5.5081,-5.5109,-5.5122,-5.5256,-5.5312,-5.5361,-5.4712,-5.4709,-5.4707,0,0,-5.3795,-5.3922,-5.3922,-5.4144,-5.4173,-5.4139,-5.4205,-5.4153,-5.4204,-5.4225,-5.4234,-5.4287,-5.4398,-5.4474,-5.4576,-5.4845,-5.4852,-5.4973,-5.5015,-5.505,-5.5082,-5.5226,-5.528,-5.4696,-5.4696,-5.4695,0,0,-5.3716,-5.3725,-5.3657,-5.3908,-5.3959,-5.3976,-5.4113,-5.403,-5.4117,-5.4093,-5.4013,-5.4024,-5.4246,-5.4259,-5.4117,-5.4514,-5.4339,-5.4372,-5.4499,-5.4551,-5.4593,-5.4588,-5.3921,0,0,0,0,0,-5.3488,-5.3723,-5.3661,-5.3696,-5.3853,-5.401,-5.4029,-5.3969,-5.3847,-5.3957,-5.3951,-5.3847,-5.4166,-5.4038,-5.4074,-5.4236,-5.4554,-5.4579,-5.4603,-5.4829,-5.4884,-5.4931,0,0,0,0,0,0,-5.3501,-5.3544,-5.3654,-5.3682,-5.3716,-5.4001,-5.3781,-5.3771,-5.3834,-5.3811,-5.3851,-5.3848,-5.38,-5.4016,-5.4049,-5.4204,-5.391,-5.4564,-5.4585,-5.4605,-5.4848,-5.4893,-5.4932,0,0,0,0,0,-5.3511,-5.3546,-5.3814,-5.3678,-5.3708,-5.3684,-5.3772,-5.3762,-5.3809,-5.3802,-5.3795,-5.3758,-5.3806,-5.383,-5.4035,-5.419,-5.3886,-5.3899,-5.4578,-5.4595,-5.461,-5.487,0,0,0,0,0,0,-5.3519,-5.3538,-5.3819,-5.3825,-5.3585,-5.3667,-5.3677,-5.3754,-5.3794,-5.379,-5.3703,-5.3685,-5.3813,-5.383,-5.385,-5.4189,-5.3867,-5.388,-5.3888,-5.4591,-5.4604,-5.4616,0,0,0,0,0,0,-5.3518,-5.3545,-5.3822,-5.3708,-5.3702,-5.3651,-5.3661,-5.3826,-5.3796,-5.3693,-5.3679,-5.3695,-5.3784,-5.3832,-5.3846,-5.4107,-5.3852,-5.3865,-5.3873,-5.3879,-5.4601,-5.4612,0,0,0,0,0,0,-5.3528,-5.3551,-5.3706,-5.3701,-5.3695,-5.3767,-5.3796,-5.3961,-5.3699,-5.3694,-5.3674,-5.3662,-5.3789,-5.3802,-5.3845,-5.41,-5.4105,-5.3853,-5.3861,-5.3867,-5.3871,0,0,0,0,0,0,0,-5.3536,-5.3401,-5.3778,-5.3695,-5.3689,-5.3889,-5.3891,-5.3893,-5.3696,-5.3686,-5.3676,-5.3667,-5.3782,-5.3795,-5.3809,-5.4095,0,0,-5.3851,-5.3857,0,0,0,0,0,0,0,0,-5.339,-5.3398,-5.3778,-5.378,-5.3781,-5.389,-5.3891,-5.3893,-5.3695,-5.3686,-5.3678,-5.3671,-5.3785,-5.3796,-5.3807,0,0,0,0,0,0,0,0,0,0,0,0,0,0,0,-5.3778,-5.3779,0,-5.389,-5.3891,-5.3892,-5.3693,-5.3687,-5.368,-5.3674,-5.3788,-5.3797,-5.3806,0,0,0,0,0,0,0,0,0,0,0,0,0,0,0,0,0,0,0,0,0,0,0,0,0,0,0,0,0,0,0,0,0,0,0,0,0,0,0,0,0,0,0,0,0,0,0,0,0,0,0,0,0,0,0,0,0,0,0,0,0,0,0,0,0,0,0,0,0]}],[{"header":{"parameterUnit":"kt","parameterCategory":2,"dx":1,"dy":1,"la1":30.253999710083008,"la2":30.299108505249023,"lo1":-89.0895004272461,"lo2":-89.04439544677734,"nx":28,"ny":28,"refTime":"2022-09-27T15:00:00:Z","depth":0,"parameterNumber":2,"parameterNumberName":"V-component_of_WINDS"},"data":[-16.7976,-16.8302,-16.8283,-16.8644,-16.8686,-16.8928,-16.9007,-16.9106,-16.9178,-16.9458,-16.9614,-16.9622,-16.9681,-16.9858,-17.0022,-17.002,-17.0092,-17.0222,-17.0198,-16.9638,-16.9559,-16.9483,-16.9407,-17.0238,-17.0239,-17.0782,-17.0787,-17.0791,-16.7564,-16.7612,-16.7798,-16.7965,-16.8122,-16.7985,-16.8103,-16.8242,-16.846,-16.8551,-16.8704,-16.8947,-16.9134,-16.9147,-16.9322,-16.9467,-16.9411,-16.9516,-16.9506,-16.9517,-16.8917,-16.8836,-16.9559,-16.9559,-16.9559,-16.9559,-16.9559,-16.9559,-16.6811,-16.7008,-16.7098,-16.7299,-16.7376,-16.7486,-16.7667,-16.7675,-16.7853,-16.8037,-16.7974,-16.8217,-16.83,-16.8497,-16.8556,-16.8741,-16.8619,-16.8726,-16.8753,-16.8782,-16.8818,-16.8039,-16.8768,-16.8766,-16.8764,-16.8762,-16.8761,0,-16.6254,-16.6224,-16.6401,-16.6573,-16.6717,-16.6847,-16.6961,-16.7072,-16.6994,-16.7144,-16.7357,-16.7475,-16.7706,-16.79,-16.8057,-16.8095,-16.7963,-16.7946,-16.802,-16.8057,-16.807,-16.8068,-16.7092,-16.7925,-16.7918,-16.7913,-16.7909,-16.7906,-16.5493,-16.5725,-16.5808,-16.5934,-16.5992,-16.6197,-16.6313,-16.6228,-16.6355,-16.6479,-16.6653,-16.6848,-16.7,-16.7339,-16.7339,-16.751,-16.7447,-16.7768,-16.7472,-16.7497,-16.7453,-16.7442,-16.7464,-16.7829,-16.7839,-16.7847,-16.7853,0,-16.5067,-16.5032,-16.5384,-16.5441,-16.5462,-16.5707,-16.5753,-16.5943,-16.5927,-16.6186,-16.624,-16.6216,-16.6424,-16.6371,-16.6596,-16.6562,-16.6958,-16.6891,-16.6929,-16.6913,-16.7197,-16.7172,-16.8123,-16.8242,-16.7378,-16.7387,-16.7393,0,-16.4405,-16.4712,-16.4641,-16.4847,-16.5183,-16.509,-16.5423,-16.5443,-16.5515,-16.5717,-16.556,-16.5753,-16.5655,-16.5838,-16.5788,-16.6101,-16.6143,-16.6135,-16.6119,-16.6152,-16.6153,-16.6217,-16.6178,-16.607,-16.6066,-16.6061,-16.6058,0,-16.3743,-16.4064,-16.4397,-16.4464,-16.4555,-16.4713,-16.4757,-16.4835,-16.495,-16.5088,-16.516,-16.5327,-16.5419,-16.5548,-16.5483,-16.5284,-16.5865,-16.5577,-16.5857,-16.586,-16.599,-16.5984,-16.6837,-16.6052,-16.605,-16.6049,-16.6047,0,-16.3203,-16.3352,-16.3841,-16.3911,-16.3999,-16.4217,-16.4378,-16.4552,-16.4646,-16.463,-16.4737,-16.4626,-16.4896,-16.4615,-16.4984,-16.4743,-16.4842,-16.4858,-16.4877,-16.49,-16.4587,-16.5078,-16.5895,-16.598,-16.4918,-16.4908,-16.49,0,-16.2456,-16.294,-16.2865,-16.333,-16.3546,-16.3357,-16.3596,-16.3685,-16.3683,-16.3862,-16.3856,-16.4061,-16.384,-16.3896,-16.4086,-16.4088,-16.4401,-16.4044,-16.4299,-16.431,-16.4283,-16.5034,-16.5171,-16.5722,-16.4779,-16.4791,-16.48,0,-16.1872,-16.1983,-16.2072,-16.2144,-16.225,-16.2429,-16.2705,-16.2888,-16.3012,-16.3128,-16.3355,-16.364,-16.3484,-16.358,-16.3506,-16.3707,-16.4186,-16.3513,-16.3513,-16.3637,-16.4712,-16.4841,-16.4934,-16.4091,-16.4106,-16.4118,-16.4704,0,-16.1067,-16.1304,-16.1541,-16.1708,-16.1838,-16.2126,-16.2074,-16.2216,-16.2134,-16.2125,-16.2457,-16.2515,-16.2699,-16.2789,-16.271,-16.3186,-16.3098,-16.293,-16.2654,-16.3146,-16.3338,-16.3417,-16.2372,-16.2364,-16.2357,-16.2351,0,0,-16.0361,-16.07,-16.0609,-16.0875,-16.098,-16.0779,-16.1092,-16.1169,-16.1331,-16.1406,-16.125,-16.1662,-16.1716,-16.2124,-16.2274,-16.2348,-16.2427,-16.2258,-16.2912,-16.2975,-16.3033,-16.3239,-16.3322,-16.2338,-16.2335,-16.2333,-16.2331,0,-16.0057,-16.0123,-16.0435,-16.0511,-16.0622,-16.0599,-16.0674,-16.0747,-16.0756,-16.1081,-16.0909,-16.1101,-16.1433,-16.1512,-16.1596,-16.2207,-16.2065,-16.2266,-16.2614,-16.2842,-16.2915,-16.2978,-16.3196,-16.3275,-16.2313,-16.2314,-16.2315,0,-15.9474,-15.953,-15.9676,-15.9906,-15.9976,-16.0202,-15.99,-16.0152,-16.0317,-16.0082,-16.0408,-16.0433,-16.0535,-16.0928,-16.1102,-16.0965,-16.1739,-16.1485,-16.1528,-16.1547,-16.1765,-16.1852,-16.193,-16.0908,-16.0904,-16.0899,0,0,-15.9218,-15.9438,-15.9471,-15.9836,-15.9893,-15.9862,-15.9977,-15.9907,-16.0005,-16.0046,-16.0075,-16.0174,-16.0364,-16.0492,-16.0669,-16.1108,-16.1121,-16.1314,-16.138,-16.1435,-16.1483,-16.1716,-16.1802,-16.0882,-16.0882,-16.0881,0,0,-15.9094,-15.9148,-15.9049,-15.9467,-15.9569,-15.9623,-15.9847,-15.9725,-15.9879,-15.984,-15.973,-15.9752,-16.0118,-16.0149,-15.992,-16.0569,-16.0296,-16.035,-16.0536,-16.0619,-16.0684,-16.067,-15.9617,0,0,0,0,0,-15.8758,-15.9141,-15.9051,-15.9113,-15.9402,-15.9673,-15.9709,-15.963,-15.9439,-15.9618,-15.9622,-15.9463,-16.0002,-15.9797,-15.9859,-16.0116,-16.0655,-16.0696,-16.0733,-16.1077,-16.1164,-16.1238,0,0,0,0,0,0,-15.8782,-15.8859,-15.904,-15.9112,-15.9176,-15.9659,-15.9318,-15.9306,-15.9417,-15.9383,-15.9467,-15.9466,-15.9401,-15.976,-15.9817,-16.0063,-15.9597,-16.0671,-16.0705,-16.0736,-16.1107,-16.1178,-16.1239,0,0,0,0,0,-15.8801,-15.8862,-15.9348,-15.9106,-15.9162,-15.9148,-15.9302,-15.929,-15.9374,-15.9383,-15.9376,-15.9305,-15.941,-15.9452,-15.9793,-16.0039,-15.9557,-15.9579,-16.0693,-16.072,-16.0744,-16.1142,0,0,0,0,0,0,-15.8814,-15.8852,-15.9357,-15.9371,-15.8956,-15.9119,-15.9142,-15.9277,-15.9365,-15.9364,-15.9213,-15.9185,-15.9421,-15.9451,-15.9485,-16.0036,-15.9525,-15.9547,-15.956,-16.0714,-16.0735,-16.0753,0,0,0,0,0,0,-15.8818,-15.8865,-15.9364,-15.9179,-15.9171,-15.9093,-15.9114,-15.9391,-15.9369,-15.919,-15.9169,-15.92,-15.9369,-15.9454,-15.9479,-15.9915,-15.95,-15.9521,-15.9535,-15.9545,-16.0731,-16.0747,0,0,0,0,0,0,-15.8836,-15.8877,-15.9175,-15.9169,-15.9161,-15.9309,-15.9335,-15.9635,-15.9215,-15.9189,-15.9175,-15.9156,-15.9376,-15.9399,-15.9476,-15.9902,-15.9912,-15.9501,-15.9515,-15.9525,-15.9532,0,0,0,0,0,0,0,-15.8851,-15.86,-15.9276,-15.9161,-15.9153,-15.9498,-15.9502,-15.9506,-15.9211,-15.9195,-15.9179,-15.9164,-15.938,-15.9403,-15.9426,-15.9892,0,0,-15.9498,-15.9509,0,0,0,0,0,0,0,0,-15.8581,-15.8595,-15.9276,-15.9279,-15.9282,-15.9499,-15.9502,-15.9505,-15.9209,-15.9196,-15.9183,-15.917,-15.9387,-15.9405,-15.9424,0,0,0,0,0,0,0,0,0,0,0,0,0,0,0,-15.9277,-15.9279,0,-15.9499,-15.9502,-15.9504,-15.9207,-15.9196,-15.9185,-15.9175,-15.9392,-15.9407,-15.9422,0,0,0,0,0,0,0,0,0,0,0,0,0,0,0,0,0,0,0,0,0,0,0,0,0,0,0,0,0,0,0,0,0,0,0,0,0,0,0,0,0,0,0,0,0,0,0,0,0,0,0,0,0,0,0,0,0,0,0,0,0,0,0,0,0,0,0,0,0]}]]]